Regional Weather Roundup
Issued by NWS

Home | Current Version | Previous Version | Text Only | Print | Product List | Glossary On
Versions: 1 2 3 4 5 6 7 8 9 10 11 12 13 14 15 16 17 18 19 20 21 22 23 24 25 26 27 28 29 30 31 32 33 34 35 36 37 38 39 40 41 42 43 44 45 46 47 48 49 50
000
ASUS43 KLMK 260410
RWRKY
KENTUCKY REGIONAL WEATHER ROUNDUP
NATIONAL WEATHER SERVICE LOUISVILLE KY
1100 PM EST THU DEC 25 2014

NOTE "FAIR" INDICATES FEW OR NO CLOUDS BELOW 12,000 FEET
WITH NO SIGNIFICANT WEATHER AND/OR OBSTRUCTIONS TO VISIBILITY.

KYZ001>023-026-027-061>063-070>075-260500-
WESTERN AND SOUTH CENTRAL KENTUCKY

CITY           SKY/WX    TMP DP  RH WIND       PRES   REMARKS
PADUCAH        MOCLDY    44  34  67 S9        30.12R
HENDERSON      CLEAR     39  30  70 S9        30.14R WCI  33
OWENSBORO      CLEAR     38  34  85 S12       30.16R WCI  30
HOPKINSVILLE   PTCLDY    40  34  77 S5        30.18R
BOWLING GREEN  CLEAR     35  31  85 CALM      30.20R
GLASGOW        CLEAR     35  32  88 CALM      30.19R
$$

KYZ024-025-028>034-038-045-046-053-260500-
NORTH CENTRAL KENTUCKY

CITY           SKY/WX    TMP DP  RH WIND       PRES   REMARKS
LOUISVILLE/SDF CLEAR     35  31  85 S5        30.18S WCI  31
LOUISVILLE/LOU CLEAR     36  31  82 CALM      30.18S
FORT KNOX      CLEAR     34  31  87 SE3       30.17R
$$

KYZ035>037-039>044-047>052-055>060-089>105-260500-
NORTHEAST KENTUCKY

CITY           SKY/WX    TMP DP  RH WIND       PRES   REMARKS
LEXINGTON      CLEAR     32  29  88 SE6       30.19R WCI  26
COVINGTON      CLEAR     32  27  81 S6        30.17F WCI  26
FRANKFORT      CLEAR     30  27  88 CALM      30.18S
$$

KYZ054-064>069-076>088-106>120-260500-
SOUTHEAST KENTUCKY

CITY           SKY/WX    TMP DP  RH WIND       PRES   REMARKS
JACKSON        CLEAR     37  30  75 S3        30.20S
LONDON         CLEAR     32  27  81 CALM      30.20R
SOMERSET       CLEAR     30  30 100 CALM      30.22R
MIDDLESBORO    CLEAR     31  30  98 CALM      30.24F
MONTICELLO     CLEAR     28  27  96 CALM      30.22S
$$




USA.gov is the U.S. government's official web portal to all federal, state and local government web resources and services.